TimeMDT,TemperatureF,Dew PointF,Humidity,Sea Level PressureIn,VisibilityMPH,Wind Direction,Wind SpeedMPH,Gust SpeedMPH,PrecipitationIn,Events,Conditions,WindDirDegrees,DateUTC
12:53 AM,46.9,27.0,46,30.14,10.0,West,3.5,-,N/A,,Clear,260,2013-10-06 06:53:00
1:53 AM,44.1,28.0,53,30.14,10.0,SW,5.8,-,N/A,,Clear,230,2013-10-06 07:53:00
2:53 AM,39.9,27.0,60,30.15,10.0,Calm,Calm,-,N/A,,Clear,0,2013-10-06 08:53:00
3:53 AM,41.0,27.0,57,30.15,10.0,Calm,Calm,-,N/A,,Clear,0,2013-10-06 09:53:00
4:53 AM,41.0,27.0,57,30.15,10.0,Calm,Calm,-,N/A,,Clear,0,2013-10-06 10:53:00
5:53 AM,43.0,27.0,53,30.16,10.0,WNW,4.6,-,N/A,,Clear,290,2013-10-06 11:53:00
6:53 AM,39.0,26.1,60,30.21,10.0,Calm,Calm,-,N/A,,Clear,0,2013-10-06 12:53:00
7:53 AM,48.0,28.9,48,30.22,10.0,Calm,Calm,-,N/A,,Clear,0,2013-10-06 13:53:00
8:53 AM,53.1,28.0,38,30.22,10.0,Calm,Calm,-,N/A,,Clear,0,2013-10-06 14:53:00
9:53 AM,57.0,27.0,32,30.23,10.0,Variable,3.5,-,N/A,,Clear,0,2013-10-06 15:53:00
10:53 AM,62.1,27.0,26,30.22,10.0,Calm,Calm,-,N/A,,Clear,0,2013-10-06 16:53:00
11:53 AM,66.0,27.0,23,30.19,10.0,WNW,3.5,-,N/A,,Clear,290,2013-10-06 17:53:00
12:53 PM,70.0,24.1,18,30.15,10.0,Variable,4.6,-,N/A,,Clear,0,2013-10-06 18:53:00
1:53 PM,71.1,21.0,15,30.12,10.0,Calm,Calm,-,N/A,,Clear,0,2013-10-06 19:53:00
2:53 PM,73.9,17.1,12,30.12,10.0,Calm,Calm,-,N/A,,Clear,0,2013-10-06 20:53:00
3:53 PM,75.0,14.0,10,30.10,10.0,NW,4.6,-,N/A,,Clear,320,2013-10-06 21:53:00
4:53 PM,73.9,10.0,9,30.10,10.0,Calm,Calm,-,N/A,,Clear,0,2013-10-06 22:53:00
5:53 PM,73.0,15.1,11,30.10,10.0,Calm,Calm,-,N/A,,Clear,0,2013-10-06 23:53:00
6:53 PM,64.0,21.0,19,30.14,10.0,East,4.6,-,N/A,,Clear,90,2013-10-07 00:53:00
7:53 PM,57.0,21.9,26,30.15,10.0,ENE,4.6,-,N/A,,Clear,60,2013-10-07 01:53:00
8:53 PM,55.9,19.9,25,30.16,10.0,Calm,Calm,-,N/A,,Clear,0,2013-10-07 02:53:00
9:53 PM,51.1,24.1,35,30.17,10.0,WSW,4.6,-,N/A,,Clear,240,2013-10-07 03:53:00
10:53 PM,52.0,23.0,32,30.15,10.0,Calm,Calm,-,N/A,,Clear,0,2013-10-07 04:53:00
11:53 PM,48.0,27.0,44,30.15,10.0,WSW,3.5,-,N/A,,Clear,250,2013-10-07 05:53:00